Weather History for Meknes, Morocco

Change the Weather History Date:

Friday, November 15, 2013

  Actual Average Record
Temperature  
Mean Temperature 60 °F -  
Max Temperature 72 °F - - ()
Min Temperature 48 °F - - ()
Degree Days  
Heating Degree Days 5    
Growing Degree Days 10 (Base 50)    
Moisture  
Dew Point 42 °F    
Average Humidity 56    
Maximum Humidity 76    
Minimum Humidity 19    
Precipitation  
Precipitation 0.00 in - - ()
Sea Level Pressure  
Sea Level Pressure 30.03 in    
Wind  
Wind Speed 9 mph ()    
Max Wind Speed 14 mph    
Max Gust Speed -    
Visibility 6.0 miles    
Events      
T = Trace of Precipitation, MM = Missing Value Source: Averaged Metar Reports

Daily Weather History Graph

Daily Weather History Graph

Search for Another Location

Airport:

Trip Planner

Search our weather history database for the weather conditions in past years. The results will help you decide how hot, cold, wet, or windy it might be!

Date:

Astronomy

Nov. 15, 2013 Rise Set
Actual Time 6:54 AM WET 5:18 PM WET
Civil Twilight 6:27 AM WET 5:45 PM WET
Nautical Twilight 5:57 AM WET 6:15 PM WET
Astronomical Twilight 5:28 AM WET 6:44 PM WET
Moon 4:02 PM WET (11/15) 4:42 AM WET (11/15)
Length of Visible Light 11h 17m
Length of Day
10h 24m
Waxing Gibbous, 95% of the Moon is Illuminated
Nov 15
Waxing Gibbous
Nov 17
Full
Nov 25
Last Quarter
Dec 3
New
Dec 9
First Quarter

Hourly Weather History & Observations

Time (WET) Temp. Dew Point Humidity Pressure Visibility Wind Dir Wind Speed Gust Speed Precip Events Conditions
12:00 AM 54 °F 44 °F 59% 30.09 in 6 mi East 12.7 mph - -  
12:00 AM 53.6 °F 44.6 °F 72% 30.09 in - East 12.7 mph - N/A   Clear
1:00 AM 53.6 °F 42.8 °F 67% 30.09 in - East 12.7 mph - N/A   Clear
2:00 AM 53.6 °F 44.6 °F 72% 30.04 in - East 13.8 mph - N/A   Clear
3:00 AM 52 °F 44 °F 66% 30.07 in 6 mi East 8.1 mph - -  
3:00 AM 51.8 °F 44.6 °F 76% 30.06 in - East 8.1 mph - N/A   Clear
4:00 AM 50.0 °F 42.8 °F 76% 30.09 in - East 9.2 mph - N/A   Clear
5:00 AM 50.0 °F 41.0 °F 71% 30.06 in - East 9.2 mph - N/A   Clear
5:01 AM 50.0 °F 41.0 °F 71% 30.06 in - East 9.2 mph - N/A   Clear
6:00 AM 49 °F 43 °F 72% 30.08 in 6 mi East 8.1 mph - -  
6:00 AM 50.0 °F 42.8 °F 76% 30.06 in - East 8.1 mph - N/A   Clear
7:00 AM 48.2 °F 41.0 °F 76% 30.06 in - SE 8.1 mph - N/A   Clear
9:00 AM 58 °F 38 °F 35% 30.07 in 6 mi ENE 4.6 mph - -  
12:00 PM 69 °F 41 °F 25% 29.99 in 6 mi West 4.6 mph - -  
12:00 PM 68.0 °F 41.0 °F 37% 30.04 in - West 4.6 mph - N/A   Clear
1:00 PM 69.8 °F 42.8 °F 38% 30.01 in - NW 6.9 mph - N/A   Clear
2:00 PM 71.6 °F 37.4 °F 29% 29.98 in - WNW 10.4 mph - N/A   Clear
3:00 PM 70 °F 37 °F 19% 29.91 in 6 mi WNW 10.4 mph - -  
3:00 PM 69.8 °F 37.4 °F 31% 29.98 in - WNW 10.4 mph - N/A   Clear
4:00 PM 68.0 °F 37.4 °F 33% 29.98 in - WNW 11.5 mph - N/A   Clear
5:00 PM 64.4 °F 42.8 °F 45% 29.98 in - WNW 12.7 mph - N/A   Clear
6:00 PM 60 °F 44 °F 45% 29.97 in 6 mi West 9.2 mph - -   Clear
6:00 PM 60.8 °F 44.6 °F 55% 30.01 in - West 9.2 mph - N/A   Clear
7:00 PM 57.2 °F 44.6 °F 63% 29.98 in - West 12.7 mph - N/A   Clear
8:00 PM 55.4 °F 39.2 °F 54% 30.01 in - West 12.7 mph - N/A   Clear
9:00 PM 53 °F 43 °F 61% 29.99 in 6 mi WSW 10.4 mph - -   Clear
9:00 PM 53.6 °F 42.8 °F 67% 30.01 in - WSW 10.4 mph - N/A   Clear
10:00 PM 51.8 °F 42.8 °F 71% 30.01 in - WSW 10.4 mph - N/A   Clear
11:00 PM 51.8 °F 42.8 °F 71% 29.98 in - SW 13.8 mph - N/A   Clear